Erie, PA

8:03 AM EST on December 06, 2019 (GMT -0500)
Erie International

Weather History for KERI - October, 2019

Change the Weather History Date:

Wednesday, October 16, 2019

  Actual Average Record
Temperature  
Mean Temperature 55 °F 53 °F  
Max Temperature 62 °F 61 °F 82 °F (1962)
Min Temperature 48 °F 45 °F 33 °F (2009)
Degree Days  
Heating Degree Days 10 12  
Month to date heating degree days 103 161  
Since 1 July heating degree days 115 285  
Cooling Degree Days 0 0  
Month to date cooling degree days 22 7  
Year to date cooling degree days 847 636  
Growing Degree Days 5 (Base 50)    
Moisture  
Dew Point 45 °F    
Average Humidity 73    
Maximum Humidity 89    
Minimum Humidity 49    
Precipitation  
Precipitation 0.72 in 0.13 in 1.14 in (1943)
Month to date precipitation 1.41 2.24  
Year to date precipitation 31.04 32.68  
Snow  
Snow 0.00 in 0.00 in - ()
Month to date snowfall 0.0 0.0  
Since 1 July snowfall 0.0 0.0  
Since 1 September snowfall 0.0 0.0  
Snow Depth 0.00 in    
Sea Level Pressure  
Sea Level Pressure 29.61 in    
Wind  
Wind Speed 14 mph ()    
Max Wind Speed 29 mph    
Max Gust Speed 40 mph    
Visibility 8.4 miles    
Events Rain , Thunderstorm    
T = Trace of Precipitation, MM = Missing Value Source: Averaged Metar Reports

Daily Weather History Graph

Daily Weather History Graph

Search for Another Location

Airport or City:

Astronomy

Oct. 16, 2019 Rise Set
Actual Time 7:34 AM EDT 6:37 PM EDT
Civil Twilight 7:05 AM EDT 7:05 PM EDT
Nautical Twilight 6:33 AM EDT 7:38 PM EDT
Astronomical Twilight 6:01 AM EDT 8:10 PM EDT
Moon 8:27 PM EDT (10/16) 10:05 AM EDT (10/16)
Length of Visible Light 12h 00m
Length of Day
11h 03m
Waning Gibbous, 93% of the Moon is Illuminated
Oct 16
Waning Gibbous
Oct 21
Last Quarter
Oct 27
New
Nov 4
First Quarter
Nov 12
Full

Hourly Weather History & Observations

Time (EDT) Temp. Dew Point Humidity Pressure Visibility Wind Dir Wind Speed Gust Speed Precip Events Conditions
12:51 AM 59.0 °F 41.0 °F 51% 29.74 in 10.0 mi SSE 17.3 mph 25.3 mph N/A   Partly Cloudy
1:51 AM 59.0 °F 41.0 °F 51% 29.72 in 10.0 mi South 16.1 mph - N/A   Partly Cloudy
2:51 AM 60.1 °F 41.0 °F 49% 29.69 in 10.0 mi South 16.1 mph 25.3 mph N/A   Scattered Clouds
3:51 AM 61.0 °F 42.1 °F 50% 29.64 in 10.0 mi South 17.3 mph 24.2 mph N/A   Overcast
4:51 AM 61.0 °F 45.0 °F 56% 29.62 in 10.0 mi South 17.3 mph 24.2 mph N/A   Mostly Cloudy
5:03 AM 61.0 °F 45.0 °F 56% 29.62 in 10.0 mi South 18.4 mph 24.2 mph N/A Thunderstorm Mostly Cloudy
5:19 AM 62.1 °F 45.0 °F 53% 29.61 in 10.0 mi South 13.8 mph - N/A Thunderstorm Thunderstorm
5:51 AM 57.9 °F 50.0 °F 75% 29.58 in 10.0 mi SSE 10.4 mph - N/A Thunderstorm Overcast
6:19 AM 57.0 °F 48.9 °F 74% 29.58 in 10.0 mi South 10.4 mph - 0.01 in Rain Light Rain
6:31 AM 57.0 °F 48.0 °F 72% 29.59 in 10.0 mi South 15.0 mph - 0.01 in Rain Light Rain
6:51 AM 55.9 °F 48.9 °F 77% 29.59 in 7.0 mi South 13.8 mph - 0.04 in Rain Rain
7:41 AM 55.9 °F 51.1 °F 84% 29.63 in 6.0 mi WSW 15.0 mph 28.8 mph 0.06 in Rain Light Rain
7:51 AM 55.9 °F 52.0 °F 87% 29.63 in 3.0 mi West 5.8 mph 16.1 mph 0.10 in Rain Rain
8:01 AM 55.9 °F 52.0 °F 87% 29.63 in 6.0 mi West 10.4 mph 19.6 mph 0.01 in Rain Light Rain
8:13 AM 55.9 °F 50.0 °F 80% 29.63 in 5.0 mi West 15.0 mph 20.7 mph 0.03 in Rain Light Rain
8:23 AM 54.0 °F 48.0 °F 80% 29.64 in 4.0 mi West 17.3 mph 31.1 mph 0.08 in Rain Rain
8:30 AM 53.1 °F 48.0 °F 83% 29.64 in 4.0 mi West 13.8 mph 26.5 mph 0.10 in Rain Rain
8:47 AM 51.8 °F 46.4 °F 82% 29.64 in 9.0 mi West 15.0 mph 27.6 mph 0.11 in Rain Light Rain
8:51 AM 52.0 °F 46.0 °F 80% 29.64 in 8.0 mi West 13.8 mph 21.9 mph 0.11 in Rain Light Rain
9:51 AM 51.1 °F 46.9 °F 86% 29.64 in 3.0 mi SSW 4.6 mph - 0.06 in Rain Rain
10:35 AM 51.1 °F 46.9 °F 86% 29.64 in 2.0 mi SSW 8.1 mph - 0.11 in Rain Rain
10:51 AM 50.0 °F 46.9 °F 89% 29.63 in 3.0 mi South 9.2 mph - 0.16 in Rain Rain
11:51 AM 50.0 °F 46.0 °F 86% 29.63 in 8.0 mi South 11.5 mph - 0.08 in Rain Light Rain
12:51 PM 51.1 °F 46.0 °F 83% 29.59 in 10.0 mi South 13.8 mph 19.6 mph 0.00 in   Overcast
1:51 PM 52.0 °F 46.0 °F 80% 29.59 in 10.0 mi SW 13.8 mph 23.0 mph 0.00 in   Overcast
2:51 PM 52.0 °F 42.1 °F 69% 29.58 in 10.0 mi WSW 13.8 mph 20.7 mph N/A   Overcast
3:51 PM 54.0 °F 42.1 °F 64% 29.57 in 10.0 mi SW 17.3 mph 23.0 mph 0.00 in   Mostly Cloudy
4:51 PM 50.0 °F 42.1 °F 74% 29.57 in 10.0 mi SSW 20.7 mph 28.8 mph 0.00 in Rain Light Rain
5:07 PM 50.0 °F 42.1 °F 74% 29.56 in 8.0 mi SSW 17.3 mph 25.3 mph 0.00 in Rain Light Rain
5:51 PM 48.0 °F 43.0 °F 83% 29.57 in 10.0 mi SSW 15.0 mph 24.2 mph 0.05 in Rain Light Rain
6:51 PM 48.0 °F 44.1 °F 86% 29.57 in 10.0 mi SSW 12.7 mph 20.7 mph 0.03 in Rain Light Rain
7:51 PM 53.1 °F 44.1 °F 71% 29.56 in 10.0 mi WNW 13.8 mph 25.3 mph 0.05 in   Overcast
7:59 PM 53.1 °F 44.1 °F 71% 29.56 in 10.0 mi West 21.9 mph 29.9 mph N/A   Overcast
8:07 PM 53.1 °F 45.0 °F 74% 29.56 in 10.0 mi WNW 15.0 mph 32.2 mph N/A   Overcast
8:15 PM 53.1 °F 45.0 °F 74% 29.57 in 8.0 mi WNW 21.9 mph 33.4 mph 0.00 in Rain Rain
8:51 PM 52.0 °F 44.1 °F 74% 29.58 in 10.0 mi WNW 17.3 mph 29.9 mph 0.02 in   Overcast
9:51 PM 50.0 °F 42.1 °F 74% 29.60 in 10.0 mi West 20.7 mph 39.1 mph 0.00 in Rain Light Rain
10:10 PM 50.0 °F 41.0 °F 71% 29.59 in 10.0 mi West 17.3 mph 32.2 mph 0.00 in   Overcast
10:25 PM 50.0 °F 39.9 °F 68% 29.59 in 10.0 mi WNW 20.7 mph 32.2 mph 0.00 in Rain Light Rain
10:51 PM 50.0 °F 41.0 °F 71% 29.60 in 10.0 mi WNW 21.9 mph 34.5 mph 0.00 in Rain Light Rain
10:58 PM 50.0 °F 41.0 °F 71% 29.59 in 10.0 mi WNW 21.9 mph 34.5 mph 0.00 in Rain Light Rain
11:51 PM 48.9 °F 39.9 °F 71% 29.60 in 9.0 mi West 17.3 mph 35.7 mph 0.01 in Rain Light Rain